Time,TemperatureF,DewpointF,PressureIn,WindDirection,WindDirectionDegrees,WindSpeedMPH,WindSpeedGustMPH,Humidity,HourlyPrecipIn,Conditions,Clouds,dailyrainin,SoftwareType,DateUTC
2013-07-11 00:02:00,64.0,-99.9,29.97,WSW,250,3.0,5.0,-999,-99.99,,,-99.99,,2013-07-11 05:02:00,
2013-07-11 00:12:00,64.0,-99.9,29.97,WSW,250,3.0,5.0,-999,-99.99,,,-99.99,,2013-07-11 05:12:00,
2013-07-11 00:22:00,64.0,-99.9,29.97,WSW,250,3.0,5.0,-999,-99.99,,,-99.99,,2013-07-11 05:22:00,
2013-07-11 00:32:00,64.0,-99.9,29.97,WSW,250,3.0,5.0,-999,-99.99,,,-99.99,,2013-07-11 05:32:00,
2013-07-11 00:40:00,64.0,-99.9,29.99,SW,230,3.0,6.0,-999,-99.99,,,-99.99,,2013-07-11 05:40:00,
2013-07-11 01:01:00,64.0,-99.9,29.99,SW,230,3.0,6.0,-999,-99.99,,,-99.99,,2013-07-11 06:01:00,
2013-07-11 01:12:00,64.0,-99.9,29.99,SW,230,3.0,6.0,-999,-99.99,,,-99.99,,2013-07-11 06:12:00,
2013-07-11 01:22:00,64.0,-99.9,29.99,SW,230,3.0,6.0,-999,-99.99,,,-99.99,,2013-07-11 06:22:00,
2013-07-11 01:32:00,64.0,-99.9,29.99,SW,230,3.0,6.0,-999,-99.99,,,-99.99,,2013-07-11 06:32:00,
2013-07-11 01:40:00,66.0,-99.9,29.99,WSW,250,3.0,8.0,-999,-99.99,,,-99.99,,2013-07-11 06:40:00,
2013-07-11 02:02:00,66.0,-99.9,29.99,WSW,250,3.0,8.0,-999,-99.99,,,-99.99,,2013-07-11 07:02:00,
2013-07-11 02:12:00,66.0,-99.9,29.99,WSW,250,3.0,8.0,-999,-99.99,,,-99.99,,2013-07-11 07:12:00,
2013-07-11 02:22:00,66.0,-99.9,29.99,WSW,250,3.0,8.0,-999,-99.99,,,-99.99,,2013-07-11 07:22:00,
2013-07-11 02:32:00,66.0,-99.9,29.99,WSW,250,3.0,8.0,-999,-99.99,,,-99.99,,2013-07-11 07:32:00,
2013-07-11 03:40:00,65.0,-99.9,30.02,NW,320,13.0,17.0,-999,-99.99,,,-99.99,,2013-07-11 08:40:00,
2013-07-11 04:03:00,65.0,-99.9,30.02,NW,320,13.0,17.0,-999,-99.99,,,-99.99,,2013-07-11 09:03:00,
2013-07-11 04:12:00,65.0,-99.9,30.02,NW,320,13.0,17.0,-999,-99.99,,,-99.99,,2013-07-11 09:12:00,
2013-07-11 04:22:00,65.0,-99.9,30.02,NW,320,13.0,17.0,-999,-99.99,,,-99.99,,2013-07-11 09:22:00,
2013-07-11 04:33:00,65.0,-99.9,30.02,NW,320,13.0,17.0,-999,-99.99,,,-99.99,,2013-07-11 09:33:00,
2013-07-11 04:40:00,64.0,-99.9,30.04,NW,320,10.0,15.0,-999,-99.99,,,-99.99,,2013-07-11 09:40:00,
2013-07-11 05:02:00,64.0,-99.9,30.04,NW,320,10.0,15.0,-999,-99.99,,,-99.99,,2013-07-11 10:02:00,
2013-07-11 05:12:00,64.0,-99.9,30.04,NW,320,10.0,15.0,-999,-99.99,,,-99.99,,2013-07-11 10:12:00,
2013-07-11 05:22:00,64.0,-99.9,30.04,NW,320,10.0,15.0,-999,-99.99,,,-99.99,,2013-07-11 10:22:00,
2013-07-11 05:33:00,64.0,-99.9,30.04,NW,320,10.0,15.0,-999,-99.99,,,-99.99,,2013-07-11 10:33:00,
2013-07-11 05:40:00,65.0,-99.9,30.05,North,350,13.0,15.0,-999,-99.99,,,-99.99,,2013-07-11 10:40:00,
2013-07-11 06:02:00,65.0,-99.9,30.05,North,350,13.0,15.0,-999,-99.99,,,-99.99,,2013-07-11 11:02:00,
2013-07-11 06:12:00,65.0,-99.9,30.05,North,350,13.0,15.0,-999,-99.99,,,-99.99,,2013-07-11 11:12:00,
2013-07-11 06:22:00,65.0,-99.9,30.05,North,350,13.0,15.0,-999,-99.99,,,-99.99,,2013-07-11 11:22:00,
2013-07-11 06:33:00,65.0,-99.9,30.05,North,350,13.0,15.0,-999,-99.99,,,-99.99,,2013-07-11 11:33:00,
2013-07-11 06:40:00,64.0,-99.9,30.08,North,350,14.0,16.0,-999,-99.99,,,-99.99,,2013-07-11 11:40:00,
2013-07-11 07:02:00,64.0,-99.9,30.08,North,350,14.0,16.0,-999,-99.99,,,-99.99,,2013-07-11 12:02:00,
2013-07-11 07:12:00,64.0,-99.9,30.08,North,350,14.0,16.0,-999,-99.99,,,-99.99,,2013-07-11 12:12:00,
2013-07-11 07:22:00,64.0,-99.9,30.08,North,350,14.0,16.0,-999,-99.99,,,-99.99,,2013-07-11 12:22:00,
2013-07-11 07:33:00,64.0,-99.9,30.08,North,350,14.0,16.0,-999,-99.99,,,-99.99,,2013-07-11 12:33:00,
2013-07-11 07:40:00,64.0,-99.9,30.09,North,360,14.0,16.0,-999,-99.99,,,-99.99,,2013-07-11 12:40:00,
2013-07-11 08:04:00,64.0,-99.9,30.09,North,360,14.0,16.0,-999,-99.99,,,-99.99,,2013-07-11 13:04:00,
2013-07-11 08:14:00,64.0,-99.9,30.09,North,360,14.0,16.0,-999,-99.99,,,-99.99,,2013-07-11 13:14:00,
2013-07-11 08:24:00,64.0,-99.9,30.09,North,360,14.0,16.0,-999,-99.99,,,-99.99,,2013-07-11 13:24:00,
2013-07-11 08:35:00,64.0,-99.9,30.09,North,360,14.0,16.0,-999,-99.99,,,-99.99,,2013-07-11 13:35:00,
2013-07-11 09:06:00,64.0,-99.9,30.11,North,350,13.0,14.0,-999,-99.99,,,-99.99,,2013-07-11 14:06:00,
2013-07-11 09:16:00,64.0,-99.9,30.11,North,350,13.0,14.0,-999,-99.99,,,-99.99,,2013-07-11 14:16:00,
2013-07-11 09:25:00,64.0,-99.9,30.11,North,350,13.0,14.0,-999,-99.99,,,-99.99,,2013-07-11 14:25:00,
2013-07-11 09:36:00,64.0,-99.9,30.11,North,350,13.0,14.0,-999,-99.99,,,-99.99,,2013-07-11 14:36:00,
2013-07-11 09:40:00,66.0,-99.9,30.11,NNW,330,9.0,10.0,-999,-99.99,,,-99.99,,2013-07-11 14:40:00,
2013-07-11 10:06:00,66.0,-99.9,30.11,NNW,330,9.0,10.0,-999,-99.99,,,-99.99,,2013-07-11 15:06:00,
2013-07-11 10:15:00,66.0,-99.9,30.11,NNW,330,9.0,10.0,-999,-99.99,,,-99.99,,2013-07-11 15:15:00,
2013-07-11 10:25:00,66.0,-99.9,30.11,NNW,330,9.0,10.0,-999,-99.99,,,-99.99,,2013-07-11 15:25:00,
2013-07-11 10:38:00,66.0,-99.9,30.11,NNW,330,9.0,10.0,-999,-99.99,,,-99.99,,2013-07-11 15:38:00,
2013-07-11 10:40:00,66.0,-99.9,30.12,NNW,330,9.0,12.0,-999,-99.99,,,-99.99,,2013-07-11 15:40:00,
2013-07-11 11:06:00,66.0,-99.9,30.12,NNW,330,9.0,12.0,-999,-99.99,,,-99.99,,2013-07-11 16:06:00,
2013-07-11 11:15:00,66.0,-99.9,30.12,NNW,330,9.0,12.0,-999,-99.99,,,-99.99,,2013-07-11 16:15:00,
2013-07-11 11:27:00,66.0,-99.9,30.12,NNW,330,9.0,12.0,-999,-99.99,,,-99.99,,2013-07-11 16:27:00,
2013-07-11 11:36:00,66.0,-99.9,30.12,NNW,330,9.0,12.0,-999,-99.99,,,-99.99,,2013-07-11 16:36:00,
2013-07-11 11:40:00,67.0,-99.9,30.12,NNW,340,6.0,7.0,-999,-99.99,,,-99.99,,2013-07-11 16:40:00,
2013-07-11 12:04:00,67.0,-99.9,30.12,NNW,340,6.0,7.0,-999,-99.99,,,-99.99,,2013-07-11 17:04:00,
2013-07-11 12:17:00,67.0,-99.9,30.12,NNW,340,6.0,7.0,-999,-99.99,,,-99.99,,2013-07-11 17:17:00,
2013-07-11 12:27:00,67.0,-99.9,30.12,NNW,340,6.0,7.0,-999,-99.99,,,-99.99,,2013-07-11 17:27:00,
2013-07-11 12:40:00,65.0,-99.9,30.12,East,100,7.0,8.0,-999,-99.99,,,-99.99,,2013-07-11 17:40:00,
2013-07-11 13:06:00,65.0,-99.9,30.12,East,100,7.0,8.0,-999,-99.99,,,-99.99,,2013-07-11 18:06:00,
2013-07-11 13:37:00,65.0,-99.9,30.12,East,100,7.0,8.0,-999,-99.99,,,-99.99,,2013-07-11 18:37:00,
2013-07-11 13:40:00,65.0,-99.9,30.12,SE,130,7.0,8.0,-999,-99.99,,,-99.99,,2013-07-11 18:40:00,
2013-07-11 14:05:00,65.0,-99.9,30.12,SE,130,7.0,8.0,-999,-99.99,,,-99.99,,2013-07-11 19:05:00,
2013-07-11 14:13:00,65.0,-99.9,30.12,SE,130,7.0,8.0,-999,-99.99,,,-99.99,,2013-07-11 19:13:00,
2013-07-11 14:25:00,65.0,-99.9,30.12,SE,130,7.0,8.0,-999,-99.99,,,-99.99,,2013-07-11 19:25:00,
2013-07-11 14:40:00,65.0,-99.9,30.11,SE,130,9.0,12.0,-999,-99.99,,,-99.99,,2013-07-11 19:40:00,
2013-07-11 15:07:00,65.0,-99.9,30.11,SE,130,9.0,12.0,-999,-99.99,,,-99.99,,2013-07-11 20:07:00,
2013-07-11 15:40:00,65.0,-99.9,30.10,SE,140,9.0,12.0,-999,-99.99,,,-99.99,,2013-07-11 20:40:00,
2013-07-11 16:07:00,65.0,-99.9,30.10,SE,140,9.0,12.0,-999,-99.99,,,-99.99,,2013-07-11 21:07:00,
2013-07-11 16:16:00,65.0,-99.9,30.10,SE,140,9.0,12.0,-999,-99.99,,,-99.99,,2013-07-11 21:16:00,
2013-07-11 16:36:00,65.0,-99.9,30.10,SE,140,9.0,12.0,-999,-99.99,,,-99.99,,2013-07-11 21:36:00,
2013-07-11 17:07:00,67.0,-99.9,30.09,SE,140,9.0,13.0,-999,-99.99,,,-99.99,,2013-07-11 22:07:00,
2013-07-11 17:18:00,67.0,-99.9,30.09,SE,140,9.0,13.0,-999,-99.99,,,-99.99,,2013-07-11 22:18:00,
2013-07-11 17:27:00,67.0,-99.9,30.09,SE,140,9.0,13.0,-999,-99.99,,,-99.99,,2013-07-11 22:27:00,
2013-07-11 17:36:00,67.0,-99.9,30.09,SE,140,9.0,13.0,-999,-99.99,,,-99.99,,2013-07-11 22:36:00,
2013-07-11 17:40:00,67.0,-99.9,30.09,SSE,150,10.0,14.0,-999,-99.99,,,-99.99,,2013-07-11 22:40:00,
2013-07-11 18:07:00,67.0,-99.9,30.09,SSE,150,10.0,14.0,-999,-99.99,,,-99.99,,2013-07-11 23:07:00,
2013-07-11 18:15:00,67.0,-99.9,30.09,SSE,150,10.0,14.0,-999,-99.99,,,-99.99,,2013-07-11 23:15:00,
2013-07-11 18:26:00,67.0,-99.9,30.09,SSE,150,10.0,14.0,-999,-99.99,,,-99.99,,2013-07-11 23:26:00,
2013-07-11 18:37:00,67.0,-99.9,30.09,SSE,150,10.0,14.0,-999,-99.99,,,-99.99,,2013-07-11 23:37:00,
2013-07-11 19:40:00,68.0,-99.9,30.08,South,170,5.0,7.0,-999,-99.99,,,-99.99,,2013-07-12 00:40:00,
2013-07-11 20:05:00,68.0,-99.9,30.08,South,170,5.0,7.0,-999,-99.99,,,-99.99,,2013-07-12 01:05:00,
2013-07-11 20:28:00,68.0,-99.9,30.08,South,170,5.0,7.0,-999,-99.99,,,-99.99,,2013-07-12 01:28:00,
2013-07-11 20:39:00,68.0,-99.9,30.08,South,170,5.0,7.0,-999,-99.99,,,-99.99,,2013-07-12 01:39:00,
2013-07-11 20:40:00,65.0,-99.9,30.07,South,190,5.0,7.0,-999,-99.99,,,-99.99,,2013-07-12 01:40:00,
2013-07-11 21:09:00,65.0,-99.9,30.07,South,190,5.0,7.0,-999,-99.99,,,-99.99,,2013-07-12 02:09:00,
2013-07-11 21:18:00,65.0,-99.9,30.07,South,190,5.0,7.0,-999,-99.99,,,-99.99,,2013-07-12 02:18:00,
2013-07-11 21:27:00,65.0,-99.9,30.07,South,190,5.0,7.0,-999,-99.99,,,-99.99,,2013-07-12 02:27:00,
2013-07-11 21:36:00,65.0,-99.9,30.07,South,190,5.0,7.0,-999,-99.99,,,-99.99,,2013-07-12 02:36:00,
2013-07-11 21:40:00,65.0,-99.9,30.08,SSW,200,6.0,9.0,-999,-99.99,,,-99.99,,2013-07-12 02:40:00,
2013-07-11 22:04:00,65.0,-99.9,30.08,SSW,200,6.0,9.0,-999,-99.99,,,-99.99,,2013-07-12 03:04:00,
2013-07-11 22:14:00,65.0,-99.9,30.08,SSW,200,6.0,9.0,-999,-99.99,,,-99.99,,2013-07-12 03:14:00,
2013-07-11 22:26:00,65.0,-99.9,30.08,SSW,200,6.0,9.0,-999,-99.99,,,-99.99,,2013-07-12 03:26:00,
2013-07-11 22:38:00,65.0,-99.9,30.08,SSW,200,6.0,9.0,-999,-99.99,,,-99.99,,2013-07-12 03:38:00,
2013-07-11 22:40:00,64.0,-99.9,30.08,South,190,7.0,9.0,-999,-99.99,,,-99.99,,2013-07-12 03:40:00,
2013-07-11 23:01:00,64.0,-99.9,30.08,South,190,7.0,9.0,-999,-99.99,,,-99.99,,2013-07-12 04:01:00,
2013-07-11 23:11:00,64.0,-99.9,30.08,South,190,7.0,9.0,-999,-99.99,,,-99.99,,2013-07-12 04:11:00,
2013-07-11 23:22:00,64.0,-99.9,30.08,South,190,7.0,9.0,-999,-99.99,,,-99.99,,2013-07-12 04:22:00,
2013-07-11 23:32:00,64.0,-99.9,30.08,South,190,7.0,9.0,-999,-99.99,,,-99.99,,2013-07-12 04:32:00,
2013-07-11 23:40:00,64.0,-99.9,30.09,SSW,200,5.0,7.0,-999,-99.99,,,-99.99,,2013-07-12 04:40:00,